Wind_Speed
14 19 20 24 27 30 34 37 40 42 45 46 48 48 47 49 50 51 51 50 50 50 48 47 47 47 46 46 44 44 43 42 41 40 38 36 36 36 37 36 36 36 36 35
13 16 19 22 24 28 32 34 37 40 42 44 45 47 47 48 49 49 49 48 49 49 49 47 46 47 47 46 45 45 44 43 42 41 40 40 40 39 39 38 38 38 38 38
11 14 17 19 20 23 28 31 34 37 39 41 43 46 48 47 48 49 47 46 47 47 48 48 47 46 47 47 45 45 45 44 43 42 42 42 42 42 41 40 40 39 39 39
9 14 16 17 18 19 22 27 31 33 37 37 41 43 45 45 46 47 46 44 44 44 45 46 46 47 47 47 47 45 45 44 44 43 43 44 43 43 43 43 43 42 42 41
8 13 15 15 17 19 19 23 27 31 34 35 36 40 42 42 43 45 45 45 45 44 43 44 45 45 46 48 48 48 47 46 45 44 44 45 45 45 45 45 44 43 43 43
8 12 13 14 16 17 17 20 23 28 30 32 32 36 39 39 40 41 42 42 43 45 45 44 45 45 46 46 47 48 48 48 47 47 47 47 47 46 46 46 46 46 46 46
8 10 11 12 13 15 16 18 20 23 26 27 29 32 34 34 37 39 41 41 40 42 43 43 44 44 44 44 45 46 47 47 48 48 48 47 48 48 48 48 48 48 48 47
7 8 10 11 12 13 15 17 19 21 24 25 27 28 29 31 33 36 39 40 40 39 40 41 42 43 44 45 45 45 46 46 47 48 49 49 49 49 50 50 50 50 50 50
5 7 9 9 10 12 14 16 17 20 21 23 24 26 28 29 31 33 34 36 38 38 38 40 41 42 43 45 46 46 46 47 48 48 49 50 52 52 52 52 52 52 52 53
4 6 8 8 10 12 13 15 16 18 19 21 22 24 25 26 28 31 32 33 35 37 37 38 38 40 41 43 44 45 47 47 48 49 50 50 51 51 53 53 53 53 54 54
3 6 8 8 9 11 12 14 16 18 19 20 21 22 23 24 26 28 31 32 33 34 35 36 37 37 39 40 42 43 44 46 47 48 49 50 50 51 51 52 53 53 53 54
2 5 8 9 10 11 12 13 14 16 17 18 19 20 21 22 24 27 28 30 31 32 32 33 35 36 37 38 40 41 42 43 45 46 48 49 50 50 51 51 52 53 53 52
2 3 6 8 10 12 12 14 15 15 16 17 17 18 20 21 22 24 26 27 29 30 31 32 33 34 36 37 38 39 40 41 43 44 46 47 47 48 49 49 50 51 52 51
3 2 4 6 9 11 12 14 16 17 17 17 17 17 19 20 22 23 25 27 29 30 30 31 32 33 35 36 37 37 38 40 41 42 43 44 45 46 47 47 48 48 49 49
4 2 4 6 8 10 12 14 15 17 18 19 18 19 19 22 24 25 25 26 28 29 30 31 32 33 34 35 35 36 37 38 39 39 40 41 42 43 44 45 46 46 46 46
5 4 5 6 9 10 12 13 14 16 17 18 19 20 21 23 24 26 27 27 28 29 30 30 31 32 33 34 34 35 35 36 37 38 38 39 39 40 40 41 42 42 43 43
6 5 5 6 8 10 12 14 15 16 18 19 20 20 21 23 24 26 28 29 29 29 29 30 31 32 33 34 34 34 34 35 36 37 37 38 38 38 39 39 39 40 40 40
8 6 6 7 8 9 11 13 15 17 18 19 20 21 22 24 25 25 26 28 29 30 30 31 31 32 33 33 34 34 35 35 35 36 36 37 37 37 37 38 38 38 38 38
11 9 7 7 8 9 11 13 14 16 17 18 20 21 22 23 24 25 26 27 28 29 30 31 32 32 32 33 33 34 34 35 35 35 36 36 37 37 37 38 38 38 38 38
13 11 10 9 10 10 11 13 14 15 15 18 19 21 22 23 24 25 27 27 28 28 29 31 32 33 33 33 34 34 34 35 36 36 37 37 38 38 38 38 38 38 38 38
13 12 12 12 12 11 13 14 15 15 17 18 19 21 22 23 24 25 27 28 29 30 30 31 32 33 33 34 34 34 34 35 36 36 37 37 37 37 37 37 37 37 38 38
14 13 14 14 14 13 14 14 15 17 18 19 21 22 22 23 24 25 26 28 28 30 31 31 32 33 33 34 34 34 34 35 35 35 36 36 36 36 36 36 37 37 37 37
15 15 15 15 15 16 16 15 16 18 20 21 22 24 24 24 25 26 27 28 29 30 31 32 32 33 33 33 33 33 34 34 34 34 34 35 36 36 36 37 37 37 37 36
16 16 16 17 17 18 17 17 18 19 20 21 23 23 24 25 26 26 27 28 29 30 31 31 31 32 32 32 32 32 33 33 33 33 34 34 34 35 35 35 35 34 34 34
17 18 18 18 19 19 19 20 20 20 21 22 23 23 24 24 26 27 27 28 28 29 30 31 32 32 32 32 33 33 32 32 33 33 33 33 33 34 34 33 33 33 33 32
19 19 20 20 21 21 21 22 22 22 22 22 23 23 24 24 25 26 28 28 28 28 29 30 31 32 32 32 32 33 33 32 32 32 33 33 33 33 33 33 33 32 32 32
Wind_Direction
186 186 190 191 194 199 203 205 206 208 210 211 212 213 215 217 218 220 222 222 225 226 227 229 231 233 234 236 237 238 238 238 239 241 244 247 250 252 253 255 258 260 261 262
179 185 190 191 194 201 205 207 209 209 210 212 213 214 216 218 220 219 220 221 224 226 227 229 231 233 235 237 239 240 240 242 244 244 246 248 250 252 254 256 258 260 261 262
179 184 188 187 190 199 207 211 211 213 213 217 217 216 219 220 221 220 221 222 225 226 229 230 232 234 235 237 240 241 242 244 246 248 249 250 251 253 255 256 258 259 261 263
177 181 182 186 193 198 206 210 213 216 217 219 220 220 219 220 222 221 221 223 224 226 229 231 233 235 237 238 240 241 242 243 245 247 249 251 252 254 255 256 257 259 261 263
169 179 186 192 197 198 205 210 214 218 221 224 226 226 222 223 223 224 225 227 228 229 230 231 234 236 238 239 240 242 243 244 245 246 248 251 253 254 256 258 260 261 263 264
160 175 185 194 198 201 206 211 216 220 223 227 229 231 229 228 227 228 229 229 231 234 235 234 235 236 238 240 241 242 244 246 247 248 250 251 252 254 256 258 260 262 263 264
162 178 187 194 199 204 207 209 213 219 224 228 229 233 231 230 229 231 231 230 231 234 236 237 237 237 239 241 242 243 244 246 248 249 251 252 253 254 256 258 260 262 264 265
168 182 187 196 206 212 213 216 218 224 229 231 232 235 232 232 232 232 232 234 235 235 236 238 239 239 239 241 243 244 245 246 248 249 251 252 253 255 257 259 261 262 264 265
177 190 195 199 209 214 214 218 224 229 234 236 236 235 232 233 234 234 234 235 236 236 237 238 239 241 241 242 243 244 246 247 248 249 251 253 255 257 258 259 260 262 264 266
200 205 211 214 219 220 219 223 227 230 236 240 241 238 238 236 236 235 234 234 235 236 238 239 240 240 242 243 243 244 245 246 248 250 252 254 255 257 259 261 263 264 266 267
225 221 217 218 218 224 224 227 232 237 242 244 244 241 238 236 234 234 234 234 235 236 238 238 239 241 242 243 244 245 246 247 248 250 252 254 255 257 259 261 263 265 267 268
241 229 226 227 229 232 231 233 234 239 243 241 242 240 239 238 237 235 235 235 236 236 237 237 238 240 242 243 244 246 247 248 249 251 253 254 256 258 259 261 263 264 266 268
286 245 239 231 233 237 242 238 235 238 243 245 246 242 238 238 237 236 235 235 235 236 236 236 237 239 240 242 244 245 247 249 250 251 253 255 256 258 259 261 263 265 266 267
335 274 259 250 245 246 244 242 241 242 247 252 250 247 242 241 240 238 236 237 237 238 238 239 239 239 241 242 244 245 247 249 250 252 253 255 256 258 260 262 263 264 266 268
347 301 265 262 258 254 247 246 247 249 250 251 249 249 245 244 243 243 243 242 241 240 240 240 241 241 242 243 244 246 248 249 251 253 254 255 257 258 260 261 263 264 266 267
338 319 287 272 268 261 253 250 252 250 252 252 251 251 250 247 245 246 246 246 246 244 242 242 242 243 244 245 247 248 249 250 252 253 255 256 257 259 260 261 263 264 265 267
342 322 302 285 279 274 263 255 255 257 258 256 255 253 251 251 250 249 247 248 248 246 244 244 243 244 246 246 247 248 249 251 252 253 254 256 258 260 261 262 263 264 266 267
357 339 318 299 291 286 278 266 263 264 262 259 259 258 255 254 253 253 251 250 249 248 247 246 247 247 248 248 248 249 250 251 252 253 254 256 257 259 260 262 263 265 266 268
357 348 336 318 303 292 284 278 273 270 266 264 264 262 258 256 255 253 253 252 251 250 249 248 248 248 249 249 250 251 251 251 252 254 255 256 257 259 260 262 263 265 267 268
354 348 340 331 317 300 294 285 279 275 270 269 268 265 261 259 258 256 255 255 254 253 252 250 249 249 250 251 252 252 253 253 254 255 256 257 258 260 261 262 263 265 267 268
350 345 340 332 325 311 303 294 284 281 281 277 273 270 267 263 261 259 258 258 257 256 255 253 252 252 252 252 253 254 254 254 255 255 256 258 259 260 261 263 264 266 267 269
346 340 336 332 328 322 312 302 292 288 285 282 278 275 272 268 264 262 261 261 259 258 256 255 254 254 253 254 254 255 255 255 255 256 257 257 258 259 260 262 264 265 267 268
345 341 335 333 328 325 320 311 301 294 290 286 282 278 275 272 269 267 265 264 263 261 259 257 256 256 256 256 255 255 255 256 256 256 257 257 258 259 260 262 264 265 267 268
342 339 337 334 331 328 323 318 310 302 296 291 287 284 281 276 272 270 270 268 266 264 262 260 259 259 258 257 256 256 256 256 256 257 258 258 259 260 261 262 263 265 266 267
338 336 334 332 330 328 325 322 317 310 304 299 294 292 288 283 277 274 273 272 269 268 265 262 261 259 259 257 256 256 257 257 256 257 258 259 260 261 261 262 263 264 265 266
335 334 332 330 328 327 325 323 321 316 310 304 299 295 292 288 283 278 275 273 272 270 267 264 262 260 258 257 257 257 256 256 257 258 258 259 260 260 260 261 262 263 264 264
Height
5623 5627 5630 5635 5640 5646 5653 5659 5666 5673 5679 5687 5694 5702 5709 5715 5723 5730 5737 5744 5750 5757 5763 5768 5774 5779 5784 5789 5794 5799 5802 5806 5809 5812 5815 5819 5822 5824 5826 5828 5829 5831 5832 5833
5626 5628 5631 5636 5641 5646 5651 5657 5663 5669 5675 5682 5689 5696 5703 5709 5716 5724 5731 5737 5744 5750 5756 5762 5767 5773 5778 5782 5786 5791 5795 5798 5802 5805 5808 5811 5813 5816 5818 5819 5821 5823 5824 5825
5627 5630 5633 5637 5641 5646 5650 5656 5661 5667 5672 5678 5685 5691 5697 5704 5710 5717 5724 5730 5736 5743 5748 5754 5760 5765 5770 5775 5779 5783 5787 5791 5794 5797 5800 5803 5805 5807 5809 5811 5813 5814 5815 5816
5629 5632 5635 5639 5642 5646 5650 5654 5659 5664 5670 5675 5680 5686 5693 5698 5704 5711 5718 5724 5730 5736 5742 5747 5752 5758 5762 5767 5771 5775 5778 5782 5785 5789 5792 5794 5796 5799 5801 5802 5803 5804 5806 5807
5632 5634 5637 5640 5644 5647 5650 5654 5658 5662 5667 5672 5676 5681 5689 5693 5699 5706 5713 5718 5724 5729 5735 5740 5745 5749 5754 5758 5762 5766 5770 5773 5777 5780 5783 5785 5787 5790 5791 5793 5794 5795 5796 5797
5634 5636 5638 5641 5644 5647 5650 5653 5656 5659 5664 5669 5674 5678 5684 5690 5696 5702 5707 5712 5717 5722 5727 5732 5736 5740 5745 5749 5753 5757 5761 5764 5767 5770 5773 5776 5778 5780 5781 5783 5784 5785 5786 5787
5637 5638 5639 5641 5644 5647 5649 5652 5655 5658 5661 5666 5670 5673 5681 5686 5691 5695 5700 5705 5710 5714 5718 5723 5728 5732 5736 5740 5744 5748 5751 5755 5758 5761 5763 5765 5768 5770 5771 5773 5774 5775 5776 5777
5638 5640 5640 5642 5644 5646 5648 5651 5655 5657 5660 5663 5666 5670 5677 5680 5684 5688 5693 5697 5702 5706 5710 5715 5719 5723 5727 5731 5735 5738 5742 5745 5748 5750 5753 5755 5757 5759 5760 5762 5763 5764 5765 5766
5639 5640 5641 5642 5644 5645 5647 5649 5652 5655 5657 5659 5662 5666 5671 5674 5678 5682 5686 5690 5694 5698 5703 5707 5711 5714 5718 5721 5725 5728 5731 5734 5737 5740 5742 5744 5746 5748 5749 5751 5752 5753 5754 5754
5639 5641 5641 5642 5644 5645 5647 5648 5650 5652 5654 5656 5659 5662 5666 5669 5672 5675 5678 5682 5687 5691 5695 5698 5702 5705 5708 5711 5715 5718 5721 5724 5726 5729 5731 5733 5735 5736 5738 5739 5740 5741 5742 5742
5639 5640 5641 5642 5643 5644 5646 5647 5648 5649 5651 5653 5654 5660 5661 5663 5665 5668 5671 5675 5679 5683 5687 5690 5693 5696 5699 5702 5704 5707 5710 5713 5716 5718 5720 5722 5723 5725 5726 5727 5728 5729 5730 5730
5638 5639 5639 5641 5641 5642 5643 5644 5645 5647 5648 5649 5651 5657 5656 5657 5659 5662 5665 5668 5671 5675 5678 5681 5684 5687 5690 5692 5695 5698 5700 5702 5705 5707 5708 5710 5712 5713 5714 5715 5716 5717 5717 5718
5637 5637 5638 5639 5641 5641 5640 5641 5642 5644 5645 5645 5647 5652 5651 5652 5653 5656 5658 5661 5664 5667 5670 5673 5676 5678 5681 5683 5686 5688 5690 5692 5694 5696 5697 5699 5700 5701 5702 5703 5704 5704 5705 5705
5635 5636 5637 5637 5637 5637 5637 5638 5639 5640 5641 5642 5643 5645 5646 5646 5648 5650 5652 5654 5656 5659 5662 5664 5667 5669 5672 5674 5676 5678 5680 5681 5683 5685 5687 5688 5689 5690 5691 5692 5692 5693 5693 5693
5634 5634 5633 5633 5633 5633 5634 5634 5635 5635 5636 5637 5639 5639 5640 5641 5642 5643 5645 5647 5649 5651 5653 5656 5658 5661 5663 5665 5666 5668 5670 5672 5673 5675 5676 5677 5678 5679 5680 5681 5681 5681 5682 5682
5632 5632 5631 5631 5630 5630 5630 5631 5631 5631 5632 5632 5633 5635 5635 5634 5635 5637 5638 5640 5642 5643 5645 5647 5650 5652 5654 5655 5657 5659 5660 5662 5663 5665 5666 5667 5668 5668 5669 5670 5670 5670 5670 5670
5630 5629 5629 5628 5627 5627 5627 5627 5627 5627 5627 5627 5628 5630 5628 5629 5629 5630 5631 5632 5634 5635 5637 5639 5641 5643 5644 5646 5648 5649 5651 5652 5653 5655 5656 5657 5658 5658 5659 5659 5660 5660 5660 5660
5628 5627 5626 5625 5625 5624 5626 5622 5622 5622 5622 5622 5622 5623 5622 5622 5623 5623 5624 5625 5626 5627 5629 5630 5632 5634 5635 5637 5638 5640 5641 5642 5644 5645 5646 5647 5648 5648 5649 5649 5650 5650 5650 5650
5626 5624 5623 5622 5621 5620 5620 5618 5617 5617 5617 5616 5616 5616 5616 5615 5616 5616 5617 5618 5618 5619 5620 5622 5623 5624 5626 5627 5628 5630 5631 5632 5634 5635 5636 5637 5637 5638 5639 5639 5639 5639 5640 5639
5624 5622 5621 5619 5617 5617 5617 5614 5612 5613 5612 5611 5610 5609 5609 5608 5609 5610 5609 5610 5610 5611 5612 5613 5614 5615 5616 5618 5619 5620 5621 5622 5623 5624 5625 5626 5627 5628 5628 5629 5629 5629 5629 5629
5622 5620 5618 5616 5614 5613 5612 5609 5608 5609 5608 5605 5603 5603 5602 5601 5602 5602 5601 5602 5602 5602 5603 5604 5605 5606 5607 5608 5609 5610 5611 5612 5613 5614 5615 5616 5617 5617 5618 5618 5619 5619 5619 5619
5619 5617 5615 5612 5610 5611 5606 5604 5604 5603 5600 5598 5597 5596 5595 5594 5593 5593 5593 5593 5593 5593 5594 5594 5595 5596 5597 5598 5599 5600 5601 5602 5603 5604 5605 5606 5606 5607 5607 5608 5608 5608 5608 5608
5617 5615 5612 5610 5609 5605 5601 5599 5598 5596 5594 5592 5590 5588 5587 5586 5586 5585 5585 5584 5584 5584 5584 5585 5585 5586 5587 5588 5589 5590 5591 5592 5593 5594 5594 5595 5596 5596 5597 5597 5597 5597 5597 5597
5614 5611 5608 5605 5603 5600 5597 5594 5592 5590 5587 5585 5583 5581 5579 5578 5577 5577 5576 5575 5574 5574 5574 5575 5576 5576 5577 5578 5579 5580 5581 5582 5583 5583 5584 5585 5585 5586 5586 5587 5587 5587 5587 5587
5611 5608 5604 5601 5598 5595 5592 5589 5587 5584 5581 5578 5575 5573 5571 5569 5569 5568 5567 5566 5565 5564 5564 5565 5565 5566 5567 5568 5569 5570 5570 5571 5572 5573 5574 5575 5575 5576 5576 5577 5577 5577 5577 5577
5607 5604 5601 5598 5594 5591 5588 5584 5581 5577 5574 5571 5568 5566 5563 5561 5560 5558 5558 5556 5555 5555 5554 5554 5555 5555 5556 5557 5558 5559 5560 5561 5562 5563 5564 5564 5565 5565 5566 5567 5567 5567 5568 5568